• Processing (Info)

  • MPEC 2006-O36 : 2006 OS5

    The following Minor Planet Electronic Circular may be linked-to from your own Web pages, but must not otherwise be redistributed electronically.

    A form allowing access to any MPEC is at the bottom of this page.


    Read MPEC 2006-O35 Read MPEC 2006-O37


    M.P.E.C. 2006-O36                                Issued 2006 July 23, 22:23 UT
    
         The Minor Planet Electronic Circulars contain information on unusual
             minor planets and routine data on comets.  They are published
       on behalf of Commission 20 of the International Astronomical Union by the
              Minor Planet Center, Smithsonian Astrophysical Observatory,
                              Cambridge, MA 02138, U.S.A.
    
                      Supported in part by the Brinson Foundation
                      Supported in part by the TABASGO Foundation
                 Prepared using the Tamkin Foundation Computer Network
    
                                  MPC@CFA.HARVARD.EDU
              URL http://cfa-www.harvard.edu/iau/mpc.html  ISSN 1523-6714
    
                                       2006 OS5
    
    Observations:
         K06O05S* C2006 07 22.28243 20 12 18.88 -05 30 39.2          16.5 R EO036644
         K06O05S  C2006 07 22.30353 20 12 16.28 -05 28 55.8          16.4 R EO036644
         K06O05S  C2006 07 22.32461 20 12 13.67 -05 27 12.6          16.4 R EO036644
         K06O05S  C2006 07 22.88634 20 11 09.62 -04 41 03.9          17.2 R EO036213
         K06O05S  C2006 07 22.88914 20 11 09.29 -04 40 49.8          16.9 R EO036213
         K06O05S  C2006 07 22.88974 20 11 09.21 -04 40 46.7          17.0 R EO036213
         K06O05S  C2006 07 22.89053 20 11 09.12 -04 40 43.3          17.0 R EO036213
         K06O05S  C2006 07 22.89098 20 11 09.09 -04 40 40.9          17.1 R EO036213
         K06O05S  C2006 07 22.96910 20 11 00.48 -04 33 47.0          16.6 R EO036I77
         K06O05S  C2006 07 22.97261 20 11 00.05 -04 33 30.9          16.8 R EO036I77
         K06O05S  C2006 07 22.97507 20 10 59.78 -04 33 18.5          17.1 R EO036I77
         K06O05S  C2006 07 22.98747 20 10 57.19 -04 32 42.2          17.1 R EO036A02
         K06O05S  C2006 07 22.99067 20 10 56.80 -04 32 26.4          17.2 R EO036A02
         K06O05S  C2006 07 22.99365 20 10 56.43 -04 32 11.4          17.2 R EO036A02
         K06O05S  C2006 07 23.17315 20 10 36.16 -04 17 16.3          17.1 R EO036734
         K06O05S  C2006 07 23.17545 20 10 35.88 -04 17 04.9          17.0 R EO036734
         K06O05S  C2006 07 23.18007 20 10 35.31 -04 16 41.9          17.0 R EO036734
         K06O05S  C2006 07 23.18237 20 10 35.02 -04 16 30.4          17.0 R EO036734
         K06O05S  C2006 07 23.23643 20 10 28.66 -04 11 58.3          16.6 V EO036G96
         K06O05S  C2006 07 23.23644 20 10 28.63 -04 11 57.8          17.0 R EO036854
         K06O05S  C2006 07 23.23701 20 10 28.56 -04 11 55.4          16.6 V EO036G96
         K06O05S  C2006 07 23.23740 20 10 28.50 -04 11 53.3          16.8 R EO036854
         K06O05S  C2006 07 23.23755 20 10 28.52 -04 11 52.8          16.6 V EO036G96
         K06O05S  C2006 07 23.23808 20 10 28.45 -04 11 50.1          16.6 V EO036G96
         K06O05S  C2006 07 23.23931 20 10 28.31 -04 11 43.4          16.9 R EO036854
         K06O05S  C2006 07 23.25660 20 10 26.27 -04 10 17.8          16.5 R EO036644
         K06O05S  C2006 07 23.26763 20 10 24.89 -04 09 22.8          16.5 R EO036644
         K06O05S  C2006 07 23.27996 20 10 23.38 -04 08 20.5          16.0 R EO036644
         K06O05S  C2006 07 23.28500 20 10 22.71 -04 07 55.8          16.5 R EO036644
         K06O05S  C2006 07 23.29599 20 10 21.28 -04 07 00.8          16.2 R EO036644
         K06O05S  C2006 07 23.30696 20 10 19.94 -04 06 06.0          16.5 R EO036644
         K06O05S %C2006 07 23.32524 20 10 17.34 -04 04 35.2          16.8 R EO036H06
         K06O05S %C2006 07 23.33113 20 10 16.57 -04 04 05.1          16.5 R EO036H06
         K06O05S  C2006 07 23.86072 20 09 15.23 -03 19 46.0          16.9 V EO036A89
         K06O05S  C2006 07 23.86489 20 09 14.70 -03 19 25.3          17.0 V EO036A89
         K06O05S  C2006 07 23.86896 20 09 14.20 -03 19 04.5                 EO036A89
         K06O05S  C2006 07 23.87305 20 09 13.68 -03 18 43.9                 EO036A89
         K06O05S  C2006 07 23.87705 20 09 13.19 -03 18 23.1                 EO036A89
         K06O05S  C2006 07 23.90412 20 09 09.84 -03 16 06.5          17.4 V EO036198
         K06O05S  C2006 07 23.90504 20 09 09.72 -03 16 01.9          17.4 V EO036198
         K06O05S  C2006 07 23.90652 20 09 09.54 -03 15 54.4          17.4 V EO036198
         K06O05S  C2006 07 23.90707 20 09 09.47 -03 15 51.9          17.4 V EO036198
    
    Observer details:
    198 Wildberg.  Observer R. Apitzsch.  0.35-m f/4.2 reflector + CCD.
    213 Observatorio Montcabre.  Observer R. Naves.  Measurer M. Campas.  0.30-m
        f/10 Schmidt-Cassegrain + CCD.
    644 Palomar Mountain/NEAT.  Observers M. Brown, R. Bambery, K. Lawrence,
        M. Hicks, E. Helin, R. Thicksten.  1.2-m Schmidt + CCD.
    734 Farpoint Observatory.  Observer D. Tibbets.  Measurer G. Hug.  0.7-m
        reflector + CCD.
    854 Sabino Canyon Observatory, Tucson.  Observer J. E. McGaha.  0.36-m f/10.0
        Schmidt-Cassegrain + CCD.
    A02 Masia Cal Maciarol Modul 8.  Observers J. L. Salto, A. Salto.  Measurer
        J. L. Salto.  0.25-m f/7.2 Schmidt-Cassegrain + CCD.
    A89 Sterni Observatory, Kempten.  Observer A. Bonne.  0.2-m f/10
        Schmidt-Cassegrain + CCD + f/7.26 focal reducer.
    G96 Mt. Lemmon Survey.  Observer E. J. Christensen.  Measurers E. C. Beshore,
        E. J. Christensen, G. J. Garradd, A. R. Gibbs, A. D. Grauer, R. E. Hill,
        R. A. Kowalski, S. M. Larson, R. H. McNaught.  1.5-m reflector + CCD.
    H06 New Mexico Skies Observatory.  Observers E. Guido, G. Sostero.  0.25-m
        f/3.4 reflector + CCD.
    I77 CEAMIG-REA Observatory, Belo Horizonte.  Observers C. Jacques, E. Pimentel.
        Measurer C. Jacques.  0.30-m f/3.0 Schmidt-Cassegrain + CCD.
    
    Orbital elements:
    2006 OS5                                                 Earth MOID = 0.3185 AU
    Epoch 2006 Sept. 22.0 TT = JDT 2454000.5                MPC
    M   1.02814              (2000.0)            P               Q
    n   0.19026390     Peri.   57.84807     +0.90377323     +0.10092751
    a   2.9938621      Node   293.29768     -0.32704390     +0.78974671
    e   0.6065016      Incl.   26.92781     +0.27610909     +0.60507336
    P   5.18           H   18.1           G   0.15           U   8
    Residuals in seconds of arc
    060722 644  0.0   0.0     060723 734  0.0   0.1-    060723 644  0.2+  0.1+
    060722 644  0.0   0.0     060723 734  0.1+  0.2-    060723 644  0.6-  0.2+
    060722 644  0.2-  0.1-    060723 734  0.1+  0.2-    060723 644  0.1+  0.1+
    060722 213  0.0   0.0     060723 734  0.0   0.2-    060723 H06  0.2-  0.7-
    060722 213  0.1+  0.2+    060723 G96  0.1+  0.1-    060723 H06  0.6-  0.1-
    060722 213  0.0   0.3+    060723 854  0.4-  0.3+    060723 A89  0.1+  0.1-
    060722 213  0.1+  0.2-    060723 G96  0.3-  0.1-    060723 A89  0.1-  0.5-
    060722 213  0.5+  0.0     060723 854  0.5-  0.0     060723 A89  0.0   0.2-
    060722 I77  0.5-  0.9+    060723 G96  0.1+  0.2-    060723 A89  0.2-  0.3-
    060722 I77  0.5-  0.4-    060723 G96  0.0   0.1-    060723 A89  0.0   0.3+
    060722 I77  0.1-  0.2-    060723 854  0.2+  0.4+    060723 198  0.1+  0.3+
    060722 A02  0.2+  0.0     060723 644  0.1+  0.0     060723 198  0.0   0.3+
    060722 A02  0.4+  0.1-    060723 644  0.2+  0.1-    060723 198  0.1+  0.3+
    060722 A02  0.4+  0.1+    060723 644  0.7+  0.6+    060723 198  0.1+  0.0
    
    Ephemeris:
    2006 OS5                 a,e,i = 2.99, 0.61, 27                  q = 1.1781
    Date    TT    R. A. (2000) Decl.     Delta      r     Elong.  Phase     V
    2006 07 24    20 08.97   -03 07.8    0.346    1.350   163.2    12.6    17.2
    2006 08 03    19 47.79   +11 40.5    0.323    1.297   146.7    25.4    17.4
    2006 08 13    19 26.45   +25 41.3    0.333    1.252   129.6    38.6    17.7
    2006 08 23    19 08.51   +36 38.9    0.364    1.216   116.1    48.3    18.1
    2006 09 02    18 56.68   +44 28.3    0.406    1.192   106.8    54.1    18.5
    2006 09 12    18 52.23   +50 03.8    0.450    1.179   101.2    56.9    18.8
    2006 09 22    18 55.76   +54 13.1    0.491    1.180    98.3    57.3    19.0
    2006 10 02    19 08.23   +57 27.1    0.528    1.193    97.8    56.2    19.1
    2006 10 12    19 30.86   +60 01.7    0.559    1.219    99.1    54.0    19.2
    2006 10 22    20 05.16   +61 56.1    0.586    1.255   101.9    50.9    19.3
    2006 11 01    20 51.88   +62 57.9    0.612    1.301   105.9    47.2    19.4
    2006 11 11    21 48.50   +62 46.0    0.642    1.355   110.4    43.2    19.5
    2006 11 21    22 48.62   +61 03.6    0.679    1.415   114.9    39.3    19.6
    2006 12 01    23 45.04   +57 58.3    0.730    1.481   118.5    35.8    19.7
    2006 12 11    00 33.71   +54 00.1    0.797    1.550   120.5    33.2    20.0
    2006 12 21    01 14.40   +49 44.7    0.885    1.622   120.3    31.6    20.2
    2006 12 31    01 48.67   +45 41.4    0.993    1.695   118.2    30.8    20.6
    2007 01 10    02 18.20   +42 06.0    1.119    1.770   114.5    30.4    20.9
    2007 01 20    02 44.36   +39 03.6    1.264    1.846   109.8    30.1    21.2
    2007 01 30    03 08.20   +36 33.2    1.423    1.922   104.4    29.8    21.6
    2007 02 09    03 30.36   +34 30.4    1.594    1.997    98.7    29.2    21.9
    
    Gareth V. Williams           (C) Copyright 2006 MPC           M.P.E.C. 2006-O36
    

    Read MPEC 2006-O35 Read MPEC 2006-O37


    MPEC number:

    Enter an MPEC number in one of the following forms:

    • 1997-B01 (the full form)
    • J97B01 (the packed version of the full form)
    • B01 (the abbreviated form)